User: anonymous   Login
Location: Unspecified
(0.0000°N, 0.0000°E)
Time: 04:36:45
(UTC+00:00)
Language:

TerraSAR-X - Orbit

View from above orbital plane
View from above orbital plane
View from above satellite
View from above satellite

Ground track
Ground track

The orbit data is extracted from the following two-line orbital elements,

1 31698U 07026A   17345.64085421  .00001634  00000-0  80983-4 0  9998
2 31698  97.4457 350.7749 0001707  74.3187  59.9237 15.19156267581816
Epoch (UTC): 11 December 2017 15:22:49
Eccentricity: 0.0001707
inclination: 97.4457°
perigee height: 507 km
apogee height: 509 km
right ascension of ascending node: 350.7749°
argument of perigee: 74.3187°
revolutions per day: 15.19156267
mean anomaly at epoch: 59.9237°
orbit number at epoch: 58181

The dashed part of the orbit path shows where the satellite is in the earth's shadow,  

DLR